Regional Weather Roundup
Issued by NWS Sioux Falls, SD

Home | Current Version | Previous Version | Graphics & Text | Print | Product List | Glossary Off
Versions: 1 2 3 4 5 6 7 8 9 10 11 12 13 14 15 16 17 18 19 20 21 22 23 24 25 26 27 28 29 30 31 32 33 34 35 36 37 38 39 40 41 42 43 44 45 46 47 48 49 50

000
ASUS43 KFSD 222110
RWRFSD

WEATHER ROUNDUP FOR SE SOUTH DAKOTA/SW MINNESOTA/NW IOWA
NATIONAL WEATHER SERVICE SIOUX FALLS SD
400 PM CDT MON SEP 22 2014

NOTE: "FAIR" INDICATES FEW OR NO CLOUDS BELOW 12,000 FEET WITH NO
SIGNIFICANT WEATHER AND OR OBSTRUCTIONS TO VISIBILITY.


SDZ038>040-050-052>070-222200-
SOUTHEAST SOUTH DAKOTA

CITY           SKY/WX    TMP DP  RH WIND       PRES   REMARKS
CHAMBERLAIN    PTSUNNY   77  50  38 S18G24    30.07F
HURON          SUNNY     75  46  35 S14       30.10F
MADISON        FAIR      73  46  38 S13       30.17F
MITCHELL       MOSUNNY   77  48  35 SE14G22   30.12F
SIOUX FALLS    PTSUNNY   73  47  39 S10       30.17F
WINNER         MOCLDY    77  45  32 S20G28    30.07F
YANKTON        MOSUNNY   73  50  43 S12G17    30.16F
$$

MNZ071-072-080-081-089-090-097-098-222200-
SOUTHWEST MINNESOTA

CITY           SKY/WX    TMP DP  RH WIND       PRES   REMARKS
FAIRMONT       SUNNY     72  45  37 S5        30.21F
JACKSON        SUNNY     72  45  37 SW9       30.21F
LUVERNE        MOSUNNY   73  45  35 SE8       30.19F
MARSHALL       SUNNY     73  45  35 SW14      30.16F
MONTEVIDEO     SUNNY     79  46  31 SW5       30.16F
PIPESTONE      PTSUNNY   70  45  40 SW9       30.19F
REDWOOD FALLS  SUNNY     75  47  36 SW10      30.17F
TRACY          SUNNY     74  47  38 S8        30.18F
WINDOM         SUNNY     73  45  35 S7        30.19F
WORTHINGTON    MOSUNNY   72  46  40 S10G17    30.20F
$$

IAZ001>003-012>014-020>022-031-032-NEZ013-014-SDZ071-222200-
NORTHWEST IOWA

CITY           SKY/WX    TMP DP  RH WIND       PRES   REMARKS
CHEROKEE       MOSUNNY   71  49  44 SW6       30.21F
DENISON        MOSUNNY   72  50  46 VRB3      30.21F
ESTHERVILLE    SUNNY     71  46  40 SW8       30.21F
LE MARS        SUNNY     72  50  46 S9G17     30.20F
ORANGE CITY    SUNNY     73  46  38 S8        30.20F
SHELDON        MOSUNNY   72  48  43 S9G15     30.19F
SIOUX CITY     SUNNY     75  49  39 S10       30.20F
SPENCER        MOSUNNY   71  48  43 S9        30.21F
$$

ABBREVIATIONS USED IN REMARKS
   TC - TEMPERATURE IN CELSIUS
  WCI - WIND CHILL INDEX
   HX - HEAT INDEX
  VSB - VISIBILITY




USA.gov is the U.S. government's official web portal to all federal, state and local government web resources and services.